User: anonymous   Login
Location: Copper Breaks State Park
(34.1132°N, 99.7492°W)
Time: 01:20:44
(UTC-06:00)
Language:

SL-16 R/B - Orbit

View from above orbital plane
View from above orbital plane
View from above satellite
View from above satellite

Ground track
Ground track

The orbit data is extracted from the following two-line orbital elements,

1 27006U 01056F   14331.68200645  .00000034  00000-0  84787-4 0  3001
2 27006 099.1802 132.1998 0014185 221.6288 191.2992 13.70931488648721
Epoch (UTC): 27 November 2014 16:22:05
Eccentricity: 0.0014185
inclination: 99.1802°
perigee height: 986 km
apogee height: 1006 km
right ascension of ascending node: 132.1998°
argument of perigee: 221.6288°
revolutions per day: 13.70931488
mean anomaly at epoch: 191.2992°
orbit number at epoch: 64872

The dashed part of the orbit path shows where the satellite is in the earth's shadow,  

DLR